Ajaccio, France

4:23 AM CEST on April 29, 2017 (GMT +0200)
Campo Dell' Oro

Weather History for LFKJ - February, 2013

Change the Weather History Date:

Thursday, February 7, 2013

  Actual Average Record
Temperature  
Mean Temperature 45 °F -  
Max Temperature 53 °F 56 °F 71 °F (2001)
Min Temperature 37 °F 38 °F 24 °F (2012)
Degree Days  
Heating Degree Days 20    
Moisture  
Dew Point 37 °F    
Average Humidity 75    
Maximum Humidity 93    
Minimum Humidity 40    
Precipitation  
Precipitation 0.00 in 0.09 in - ()
Sea Level Pressure  
Sea Level Pressure 29.54 in    
Wind  
Wind Speed 7 mph ()    
Max Wind Speed 15 mph    
Max Gust Speed -    
Visibility 6.8 miles    
Events Rain    
Averages and records for this station are not official NWS values.
T = Trace of Precipitation, MM = Missing Value Source: Averaged Metar Reports

Daily Weather History Graph

Daily Weather History Graph

Search for Another Location

Airport or City:

Trip Planner

Search our weather history database for the weather conditions in past years. The results will help you decide how hot, cold, wet, or windy it might be!

Date:

Astronomy

Feb. 07, 2013 Rise Set
Actual Time 7:30 AM CET 5:47 PM CET
Civil Twilight 7:01 AM CET 6:16 PM CET
Nautical Twilight 6:28 AM CET 6:49 PM CET
Astronomical Twilight 5:56 AM CET 7:22 PM CET
Moon 4:57 AM CET (2/7) 2:52 PM CET (2/7)
Length of Visible Light 11h 15m
Length of Day
10h 16m
Waning Crescent, 11% of the Moon is Illuminated
Feb 7
Waning Crescent
Feb 10
New
Feb 17
First Quarter
Feb 25
Full
Mar 4
Last Quarter

Hourly Weather History & Observations

Time (CET) Temp. Windchill Dew Point Humidity Pressure Visibility Wind Dir Wind Speed Gust Speed Precip Events Conditions
12:00 AM 51.8 °F - 39.2 °F 62% 29.50 in 6.2 mi West 15.0 mph - N/A   Scattered Clouds
12:30 AM 50.0 °F - 37.4 °F 62% 29.50 in 6.2 mi WNW 6.9 mph - N/A   Mostly Cloudy
1:00 AM 48 °F - 38 °F 59% 29.51 in 34 mi NE 2.3 mph - -   Clear
1:00 AM 48.2 °F - 37.4 °F 66% 29.50 in 6.2 mi Variable 2.3 mph - N/A   Mostly Cloudy
1:30 AM 46.4 °F - 39.2 °F 76% 29.47 in 6.2 mi Variable 1.2 mph - N/A   Mostly Cloudy
2:00 AM 44.6 °F 40.2 °F 41.0 °F 87% 29.47 in 6.2 mi NE 8.1 mph - N/A   Overcast
2:30 AM 42.8 °F 38.0 °F 39.2 °F 87% 29.47 in 6.2 mi ENE 8.1 mph - N/A   Mostly Cloudy
3:00 AM 42.8 °F 38.0 °F 39.2 °F 87% 29.47 in 6.2 mi ENE 8.1 mph - N/A   Mostly Cloudy
3:30 AM 42.8 °F 38.6 °F 37.4 °F 81% 29.47 in 6.2 mi NE 6.9 mph - N/A   Mostly Cloudy
4:00 AM 42.8 °F 37.5 °F 39.2 °F 87% 29.44 in 6.2 mi NE 9.2 mph - N/A   Mostly Cloudy
4:30 AM 41.0 °F 35.8 °F 37.4 °F 87% 29.44 in 6.2 mi NNE 8.1 mph - N/A   Partly Cloudy
5:00 AM 39.2 °F 35.0 °F 37.4 °F 93% 29.44 in 6.2 mi NE 5.8 mph - N/A   Mostly Cloudy
5:30 AM 39.2 °F 33.0 °F 37.4 °F 93% 29.44 in 6.2 mi NE 9.2 mph - N/A   Mostly Cloudy
6:00 AM 39.2 °F 33.6 °F 35.6 °F 87% 29.44 in 6.2 mi NE 8.1 mph - N/A   Scattered Clouds
6:30 AM 39.2 °F 33.0 °F 35.6 °F 87% 29.44 in 6.2 mi NE 9.2 mph - N/A   Mostly Cloudy
7:00 AM 39 °F - 35 °F 82% 29.47 in 19 mi NE 9.2 mph - -   Mostly Cloudy
7:00 AM 39.2 °F 33.0 °F 35.6 °F 87% 29.44 in 6.2 mi NE 9.2 mph - N/A   Mostly Cloudy
7:30 AM 41.0 °F 35.2 °F 35.6 °F 81% 29.47 in 6.2 mi NE 9.2 mph - N/A   Scattered Clouds
8:00 AM 39.2 °F 34.2 °F 35.6 °F 87% 29.47 in 6.2 mi NNE 6.9 mph - N/A   Scattered Clouds
8:30 AM 42.8 °F 41.1 °F 35.6 °F 76% 29.50 in 6.2 mi NE 3.5 mph - N/A   Scattered Clouds
9:00 AM 41.0 °F 34.7 °F 35.6 °F 81% 29.50 in 6.2 mi ENE 10.4 mph - N/A   Mostly Cloudy
9:30 AM 44.6 °F 42.2 °F 39.2 °F 81% 29.50 in 6.2 mi ENE 4.6 mph - N/A   Mostly Cloudy
10:00 AM 46.4 °F - 39.2 °F 76% 29.50 in 6.2 mi Variable 2.3 mph - N/A   Mostly Cloudy
10:30 AM 48.2 °F - 39.2 °F 71% 29.50 in 6.2 mi NW 6.9 mph - N/A   Mostly Cloudy
11:00 AM 50.0 °F - 37.4 °F 62% 29.53 in 6.2 mi WSW 10.4 mph - N/A   Mostly Cloudy
11:30 AM 50.0 °F - 37.4 °F 62% 29.53 in 6.2 mi WNW 13.8 mph - N/A   Mostly Cloudy
12:00 PM 51.8 °F - 37.4 °F 58% 29.53 in 6.2 mi NW 9.2 mph - N/A   Mostly Cloudy
12:30 PM 50.0 °F - 37.4 °F 62% 29.53 in 6.2 mi NNE 8.1 mph - N/A Rain Light Rain Showers
1:00 PM 52 °F - 35 °F 40% 29.53 in 12 mi NE 3.5 mph - - Rain Light Rain Showers
1:00 PM 51.8 °F - 35.6 °F 54% 29.50 in 6.2 mi NE 3.5 mph - N/A   Mostly Cloudy
1:30 PM 53.6 °F - 35.6 °F 51% 29.50 in 6.2 mi Variable 3.5 mph - N/A   Mostly Cloudy
2:00 PM 51.8 °F - 35.6 °F 54% 29.50 in 6.2 mi Variable 2.3 mph - N/A   Mostly Cloudy
2:30 PM 51.8 °F - 37.4 °F 58% 29.50 in 6.2 mi WNW 6.9 mph - N/A Rain Light Rain Showers
3:00 PM 51.8 °F - 37.4 °F 58% 29.50 in 6.2 mi WNW 11.5 mph - N/A   Scattered Clouds
3:42 PM 51.8 °F - 35.6 °F 54% 29.53 in 6.2 mi NW 8.1 mph - N/A Rain Light Rain Showers
4:00 PM 50.0 °F - 37.4 °F 62% 29.53 in 6.2 mi ENE 12.7 mph - N/A Rain Light Rain Showers
4:30 PM 46.4 °F 41.1 °F 39.2 °F 76% 29.56 in 6.2 mi East 11.5 mph - N/A   Scattered Clouds
5:00 PM 46.4 °F 43.5 °F 37.4 °F 71% 29.56 in 6.2 mi ENE 5.8 mph - N/A   Scattered Clouds
5:30 PM 46.4 °F 45.2 °F 37.4 °F 71% 29.59 in 6.2 mi NE 3.5 mph - N/A   Scattered Clouds
6:00 PM 44.6 °F 42.2 °F 37.4 °F 76% 29.59 in 6.2 mi East 4.6 mph - N/A   Mostly Cloudy
6:30 PM 44.6 °F 43.1 °F 39.2 °F 81% 29.62 in 6.2 mi ENE 3.5 mph - N/A   Mostly Cloudy
7:00 PM 43 °F - 38 °F 78% 29.64 in 19 mi East 4.6 mph - -   Partly Cloudy
7:00 PM 42.8 °F 40.1 °F 39.2 °F 87% 29.62 in 6.2 mi East 4.6 mph - N/A   Scattered Clouds
7:30 PM 41.0 °F - 37.4 °F 87% 29.65 in 6.2 mi NE 2.3 mph - N/A   Partly Cloudy
8:00 PM 41.0 °F 39.0 °F 37.4 °F 87% 29.65 in 6.2 mi ENE 3.5 mph - N/A   Partly Cloudy
8:30 PM 39.2 °F 35.0 °F 35.6 °F 87% 29.65 in 6.2 mi East 5.8 mph - N/A   Scattered Clouds
9:00 PM 39.2 °F 34.2 °F 35.6 °F 87% 29.68 in 6.2 mi ENE 6.9 mph - N/A   Scattered Clouds
9:30 PM 37.4 °F 32.1 °F 35.6 °F 93% 29.68 in 6.2 mi NE 6.9 mph - N/A   Mostly Cloudy
10:00 PM 39.2 °F 35.0 °F 33.8 °F 81% 29.68 in 6.2 mi NE 5.8 mph - N/A   Mostly Cloudy
10:30 PM 39.2 °F 35.0 °F 33.8 °F 81% 29.71 in 6.2 mi ENE 5.8 mph - N/A   Mostly Cloudy
11:00 PM 39.2 °F 37.0 °F 33.8 °F 81% 29.71 in 6.2 mi NNE 3.5 mph - N/A   Mostly Cloudy
11:30 PM 37.4 °F 31.4 °F 33.8 °F 87% 29.71 in 6.2 mi NE 8.1 mph - N/A   Mostly Cloudy